EW4931 Weather Reports


Display with metric or nautical units.
time (UTC)temp
F
wind
direction
speed
MPH
gust
MPH
rain 1hr
in
rain 24hr
in
rain mn
in
humidity
%
barometer
mb
20260509231204 38 140 0.0 0.0 0.00 0.00 0.00 87 1020.1
20260509230705 38 140 0.0 0.0 0.00 0.00 0.00 86 1020.2
20260509230206 38 140 0.0 0.0 0.00 0.00 0.00 86 1020.2
20260509225707 39 140 0.0 0.0 0.00 0.00 0.00 86 1020.2
20260509225432 39 140 0.0 0.0 0.00 0.00 0.00 86 1020.4
20260509224707 40 140 0.0 0.0 0.00 0.00 0.00 86 1020.4
20260509224206 40 140 0.0 1.0 0.00 0.00 0.00 86 1020.4
20260509223708 40 140 0.0 2.0 0.00 0.00 0.00 86 1020.4
20260509223207 40 140 1.0 2.0 0.00 0.00 0.00 86 1020.4
20260509222707 40 140 1.0 2.0 0.00 0.00 0.00 85 1020.4
20260509222205 41 140 0.0 2.0 0.00 0.00 0.00 85 1020.5
20260509221705 41 140 1.0 2.0 0.00 0.00 0.00 85 1020.6
20260509221205 41 140 1.0 2.0 0.00 0.00 0.00 85 1020.6
20260509220705 42 140 2.0 3.0 0.00 0.00 0.00 85 1020.6
20260509220204 42 140 2.0 3.0 0.00 0.00 0.00 85 1020.7
20260509215927 42 140 2.0 3.0 0.00 0.00 0.00 84 1020.8
20260509215426 42 140 2.0 3.0 0.00 0.00 0.00 84 1020.8
20260509215153 42 140 1.0 4.0 0.00 0.00 0.00 84 1020.8
20260509214206 42 140 2.0 4.0 0.00 0.00 0.00 84 1020.8
20260509213705 42 140 2.0 3.0 0.00 0.00 0.00 84 1020.8
20260509213205 42 140 2.0 3.0 0.00 0.00 0.00 83 1021.0
20260509212705 42 140 2.0 3.0 0.00 0.00 0.00 84 1021.0
20260509212206 42 140 2.0 3.0 0.00 0.00 0.00 83 1020.9
20260509211702 42 140 3.0 3.0 0.00 0.00 0.00 83 1021.0
20260509211202 42 140 2.0 3.0 0.00 0.00 0.00 83 1021.1
20260509210702 42 140 2.0 3.0 0.00 0.00 0.00 83 1021.1
20260509210205 42 140 2.0 3.0 0.00 0.00 0.00 83 1021.2
20260509205929 42 140 1.0 3.0 0.00 0.00 0.00 83 1021.2
20260509205204 42 140 2.0 3.0 0.00 0.00 0.00 82 1021.3
20260509205149 43 140 2.0 3.0 0.00 0.00 0.00 81 1021.3
20260509204205 43 140 2.0 3.0 0.00 0.00 0.00 81 1021.4
20260509203705 43 140 1.0 3.0 0.00 0.00 0.00 80 1021.4
20260509203653 42 140 2.0 3.0 0.00 0.00 0.00 80 1021.4
20260509202701 42 140 2.0 3.0 0.00 0.00 0.00 79 1021.5
20260509202203 43 140 2.0 2.0 0.00 0.00 0.00 79 1021.5
20260509201703 43 140 1.0 3.0 0.00 0.00 0.00 79 1021.5
20260509201202 43 141 2.0 3.0 0.00 0.00 0.00 79 1021.6
20260509200702 42 141 2.0 3.0 0.00 0.00 0.00 78 1021.6
20260509200202 43 176 2.0 2.0 0.00 0.00 0.00 78 1021.6
20260509195701 43 176 1.0 2.0 0.00 0.00 0.00 78 1021.6
20260509195201 43 176 1.0 2.0 0.00 0.00 0.00 77 1021.7
20260509194700 43 176 1.0 2.0 0.00 0.00 0.00 76 1021.8
20260509194423 43 176 1.0 3.0 0.00 0.00 0.00 75 1021.8
20260509193700 43 176 1.0 3.0 0.00 0.00 0.00 75 1021.8
20260509193200 43 176 2.0 2.0 0.00 0.00 0.00 74 1021.8
20260509192700 43 176 1.0 2.0 0.00 0.00 0.00 73 1021.9
20260509192200 44 176 1.0 2.0 0.00 0.00 0.00 73 1021.9
20260509191700 44 176 1.0 2.0 0.00 0.00 0.00 72 1021.9
20260509191200 44 176 2.0 2.0 0.00 0.00 0.00 72 1021.9
20260509190700 44 176 2.0 2.0 0.00 0.00 0.00 71 1021.9
20260509190159 45 176 1.0 2.0 0.00 0.00 0.00 71 1021.9
20260509185701 45 176 2.0 2.0 0.00 0.00 0.00 70 1022.1
20260509185201 45 176 1.0 2.0 0.00 0.00 0.00 69 1022.1
20260509184919 45 176 1.0 2.0 0.00 0.00 0.00 69 1022.1
20260509184201 46 176 1.0 2.0 0.00 0.00 0.00 68 1022.2
20260509183700 46 176 1.0 1.0 0.00 0.00 0.00 67 1022.2
20260509183200 47 176 1.0 2.0 0.00 0.00 0.00 66 1022.2
20260509182701 47 176 1.0 2.0 0.00 0.00 0.00 65 1022.3
20260509182200 47 176 1.0 4.0 0.00 0.00 0.00 65 1022.3
20260509181916 47 176 1.0 5.0 0.00 0.00 0.00 65 1022.3
20260509181200 47 176 2.0 5.0 0.00 0.00 0.00 64 1022.3
20260509180700 48 169 2.0 5.0 0.00 0.00 0.00 64 1022.2
20260509180159 48 159 2.0 5.0 0.00 0.00 0.00 63 1022.3
20260509175700 48 157 4.0 7.0 0.00 0.00 0.00 62 1022.3
20260509175417 48 137 4.0 7.0 0.00 0.00 0.00 61 1022.3
20260509174659 48 171 4.0 6.0 0.00 0.00 0.00 60 1022.3
20260509174419 49 197 4.0 6.0 0.00 0.00 0.00 59 1022.3
20260509173659 49 166 2.0 6.0 0.00 0.00 0.00 59 1022.3
20260509173200 49 155 4.0 9.0 0.00 0.00 0.00 58 1022.2
20260509172918 49 183 4.0 9.0 0.00 0.00 0.00 61 1022.3
20260509172159 49 99 4.0 9.0 0.00 0.00 0.00 62 1022.3
20260509172141 50 113 6.0 9.0 0.00 0.00 0.00 60 1022.3
20260509171158 50 155 5.0 7.0 0.00 0.00 0.00 58 1022.3
20260509170659 50 141 4.0 9.0 0.00 0.00 0.00 57 1022.4
20260509170158 50 189 4.0 11.0 0.00 0.00 0.00 53 1022.5
20260509165658 50 138 8.0 11.0 0.00 0.00 0.00 53 1022.4
20260509165158 51 202 6.0 9.0 0.00 0.00 0.00 52 1022.5
20260509164921 51 180 2.0 10.0 0.00 0.00 0.00 53 1022.6
20260509164158 51 123 6.0 10.0 0.00 0.00 0.00 56 1022.6
20260509163658 51 155 5.0 11.0 0.00 0.00 0.00 56 1022.6
20260509163158 51 109 8.0 12.0 0.00 0.00 0.00 56 1022.6
20260509162658 51 100 7.0 12.0 0.00 0.00 0.00 56 1022.7
20260509162158 51 131 8.0 12.0 0.00 0.00 0.00 53 1022.7
20260509161657 51 97 6.0 11.0 0.00 0.00 0.00 53 1022.8
20260509161157 51 178 6.0 11.0 0.00 0.00 0.00 53 1022.8
20260509160658 52 120 5.0 10.0 0.00 0.00 0.00 52 1022.8
20260509160157 52 151 4.0 11.0 0.00 0.00 0.00 52 1023.0
20260509155657 52 100 6.0 11.0 0.00 0.00 0.00 51 1022.9
20260509155414 52 155 5.0 12.0 0.00 0.00 0.00 53 1023.0
20260509154657 51 106 4.0 12.0 0.00 0.00 0.00 53 1023.0
20260509154158 52 128 9.0 12.0 0.00 0.00 0.00 51 1023.1
20260509153917 51 152 8.0 12.0 0.00 0.00 0.00 53 1023.1
20260509153157 52 131 5.0 11.0 0.00 0.00 0.00 53 1023.2
20260509152656 51 110 6.0 11.0 0.00 0.00 0.00 51 1023.2
20260509152156 52 100 6.0 11.0 0.00 0.00 0.00 50 1023.1
20260509151657 52 135 8.0 12.0 0.00 0.00 0.00 51 1023.1
20260509151156 52 120 8.0 14.0 0.00 0.00 0.00 52 1023.3
20260509150656 52 133 7.0 14.0 0.00 0.00 0.00 50 1023.3
20260509150156 53 107 7.0 10.0 0.00 0.00 0.00 51 1023.4
20260509145656 52 114 6.0 14.0 0.00 0.00 0.00 52 1023.3
20260509145426 52 69 9.0 14.0 0.00 0.00 0.00 52 1023.4
20260509144657 53 147 7.0 13.0 0.00 0.00 0.00 52 1023.5
20260509144417 53 152 7.0 14.0 0.00 0.00 0.00 50 1023.5
20260509143922 53 127 9.0 14.0 0.00 0.00 0.00 50 1023.6
20260509143155 53 104 8.0 12.0 0.00 0.00 0.00 50 1023.6
20260509142655 53 138 6.0 14.0 0.00 0.00 0.00 50 1023.7
20260509142156 53 133 10.0 14.0 0.00 0.00 0.00 50 1023.7
20260509141655 53 127 8.0 13.0 0.00 0.00 0.00 49 1023.7
20260509141154 53 90 9.0 13.0 0.00 0.00 0.00 48 1023.8
20260509140655 53 134 9.0 13.0 0.00 0.00 0.00 48 1023.8
20260509140413 53 120 10.0 13.0 0.00 0.00 0.00 48 1023.9
20260509135654 53 182 6.0 15.0 0.00 0.00 0.00 49 1023.9
20260509135414 53 168 8.0 15.0 0.00 0.00 0.00 49 1024.0
20260509134917 54 131 10.0 14.0 0.00 0.00 0.00 46 1024.0
20260509134416 54 151 6.0 13.0 0.00 0.00 0.00 47 1024.0
20260509133654 54 120 7.0 17.0 0.00 0.00 0.00 47 1024.1
20260509133154 55 110 13.0 17.0 0.00 0.00 0.00 45 1024.2
20260509132654 55 124 6.0 15.0 0.00 0.00 0.00 45 1024.2
20260509132154 54 66 7.0 16.0 0.00 0.00 0.00 43 1024.2
20260509131654 55 100 10.0 16.0 0.00 0.00 0.00 42 1024.3
20260509131155 55 83 8.0 14.0 0.00 0.00 0.00 44 1024.3
20260509130654 55 199 5.0 14.0 0.00 0.00 0.00 43 1024.4
20260509130153 55 149 9.0 15.0 0.00 0.00 0.00 43 1024.5
20260509125653 55 111 7.0 15.0 0.00 0.00 0.00 43 1024.5
20260509125420 56 93 6.0 12.0 0.00 0.00 0.00 42 1024.5
20260509124919 56 75 6.0 13.0 0.00 0.00 0.00 43 1024.5
20260509124153 55 149 7.0 14.0 0.00 0.00 0.00 43 1024.5
20260509123911 56 117 10.0 14.0 0.00 0.00 0.00 41 1024.6
20260509123153 56 82 5.0 13.0 0.00 0.00 0.00 43 1024.7
20260509122653 56 144 8.0 14.0 0.00 0.00 0.00 44 1024.6
20260509122152 56 117 8.0 14.0 0.00 0.00 0.00 44 1024.7
20260509121913 56 104 7.0 11.0 0.00 0.00 0.00 43 1024.7
20260509121153 57 134 6.0 11.0 0.00 0.00 0.00 43 1024.8
20260509120652 56 147 4.0 10.0 0.00 0.00 0.00 43 1024.8
20260509120152 56 172 6.0 10.0 0.00 0.00 0.00 43 1024.9
20260509115653 56 212 4.0 14.0 0.00 0.00 0.00 43 1024.8
20260509115418 56 206 6.0 14.0 0.00 0.00 0.00 43 1025.0
20260509115128 56 127 6.0 12.0 0.00 0.00 0.00 42 1025.0
20260509114152 56 157 7.0 12.0 0.00 0.00 0.00 42 1024.9
20260509113652 56 144 7.0 14.0 0.00 0.00 0.00 41 1025.0
20260509113151 57 172 8.0 14.0 0.00 0.00 0.00 41 1025.1
20260509112652 57 169 6.0 10.0 0.00 0.00 0.00 39 1025.1
20260509112151 57 210 2.0 11.0 0.00 0.00 0.00 39 1025.3
20260509111652 57 214 6.0 11.0 0.00 0.00 0.00 38 1025.3
20260509111410 57 192 7.0 10.0 0.00 0.00 0.00 39 1025.3
20260509110650 57 245 6.0 13.0 0.00 0.00 0.00 40 1025.3
20260509110150 56 166 4.0 13.0 0.00 0.00 0.00 39 1025.4
20260509105652 56 223 4.0 12.0 0.00 0.00 0.00 42 1025.4
20260509105152 56 97 7.0 12.0 0.00 0.00 0.00 43 1025.4
20260509104652 56 251 3.0 11.0 0.00 0.00 0.00 46 1025.4
20260509104152 55 172 7.0 11.0 0.00 0.00 0.00 45 1025.5
20260509103652 55 179 5.0 13.0 0.00 0.00 0.00 46 1025.6
20260509103645 55 157 8.0 13.0 0.00 0.00 0.00 46 1025.6
20260509102651 55 162 8.0 13.0 0.00 0.00 0.00 45 1025.5
20260509102151 55 166 6.0 11.0 0.00 0.00 0.00 47 1025.6
20260509101651 56 204 4.0 11.0 0.00 0.00 0.00 47 1025.6
20260509101150 55 183 2.0 12.0 0.00 0.00 0.00 53 1025.6
20260509100649 54 107 8.0 14.0 0.00 0.00 0.00 52 1025.6
20260509100149 54 116 5.0 14.0 0.00 0.00 0.00 52 1025.5
20260509095650 54 79 7.0 13.0 0.00 0.00 0.00 52 1025.6
20260509095413 53 117 6.0 13.0 0.00 0.00 0.00 52 1025.6
20260509094649 54 102 7.0 13.0 0.00 0.00 0.00 52 1025.6
20260509094149 53 83 6.0 12.0 0.00 0.00 0.00 51 1025.6
20260509093649 53 56 7.0 12.0 0.00 0.00 0.00 51 1025.6
20260509093149 54 131 5.0 11.0 0.00 0.00 0.00 52 1025.7
20260509092649 54 142 7.0 11.0 0.00 0.00 0.00 50 1025.7
20260509092149 54 158 6.0 11.0 0.00 0.00 0.00 52 1025.6
20260509091649 54 173 6.0 13.0 0.00 0.00 0.00 52 1025.7
20260509091150 54 86 3.0 13.0 0.00 0.00 0.00 51 1025.8
20260509090648 53 135 8.0 13.0 0.00 0.00 0.00 53 1025.8
20260509090147 53 142 6.0 13.0 0.00 0.00 0.00 52 1025.8
20260509085647 53 85 9.0 15.0 0.00 0.00 0.00 49 1025.8
20260509085147 53 173 9.0 15.0 0.00 0.00 0.00 50 1025.8
20260509084647 53 97 8.0 14.0 0.00 0.00 0.00 50 1025.9
20260509084147 53 114 9.0 14.0 0.00 0.00 0.00 50 1025.8
20260509083909 53 137 9.0 11.0 0.00 0.00 0.00 47 1025.9
20260509083147 54 135 6.0 13.0 0.00 0.00 0.00 47 1025.9
20260509082647 54 103 8.0 13.0 0.00 0.00 0.00 46 1025.9
20260509082146 54 94 7.0 11.0 0.00 0.00 0.00 45 1025.9
20260509081646 54 117 8.0 11.0 0.00 0.00 0.00 47 1026.1
20260509081146 54 212 5.0 11.0 0.00 0.00 0.00 46 1026.2
20260509080646 53 159 9.0 13.0 0.00 0.00 0.00 46 1026.1
20260509080145 53 130 7.0 14.0 0.00 0.00 0.00 46 1026.0
20260509075646 54 172 8.0 14.0 0.00 0.00 0.00 45 1026.2
20260509075145 54 79 8.0 11.0 0.00 0.00 0.00 45 1026.2
20260509074645 54 138 7.0 16.0 0.00 0.00 0.00 46 1026.2
20260509074146 53 133 9.0 16.0 0.00 0.00 0.00 46 1026.3
20260509073645 54 118 6.0 15.0 0.00 0.00 0.00 46 1026.2
20260509073145 54 131 9.0 15.0 0.00 0.00 0.00 48 1026.2
20260509072645 53 189 6.0 12.0 0.00 0.00 0.00 46 1026.2
20260509072146 53 135 10.0 13.0 0.00 0.00 0.00 47 1026.2
20260509071644 54 109 5.0 13.0 0.00 0.00 0.00 47 1026.2
20260509071145 54 171 4.0 9.0 0.00 0.00 0.00 49 1026.2
20260509070645 53 142 4.0 9.0 0.00 0.00 0.00 49 1026.3
20260509070144 53 137 2.0 11.0 0.00 0.00 0.00 54 1026.3
20260509065644 53 109 5.0 11.0 0.00 0.00 0.00 54 1026.3
20260509065145 52 116 4.0 9.0 0.00 0.00 0.00 55 1026.3
20260509064645 52 161 3.0 9.0 0.00 0.00 0.00 56 1026.3
20260509064145 51 99 4.0 6.0 0.00 0.00 0.00 57 1026.3
20260509063644 51 117 4.0 6.0 0.00 0.00 0.00 58 1026.3
20260509063144 51 97 1.0 5.0 0.00 0.00 0.00 59 1026.3
20260509062644 51 165 4.0 9.0 0.00 0.00 0.00 58 1026.3
20260509062410 51 151 5.0 9.0 0.00 0.00 0.00 59 1026.3
20260509061907 51 124 6.0 9.0 0.00 0.00 0.00 58 1026.3
20260509061144 50 82 4.0 7.0 0.00 0.00 0.00 59 1026.3
20260509060643 49 96 5.0 7.0 0.00 0.00 0.00 60 1026.3
20260509060144 49 117 4.0 7.0 0.00 0.00 0.00 60 1026.3
20260509055643 49 120 5.0 7.0 0.00 0.00 0.00 60 1026.3
20260509055143 49 120 3.0 9.0 0.00 0.00 0.00 60 1026.3
20260509054643 49 133 2.0 9.0 0.00 0.00 0.00 61 1026.3
20260509054143 48 138 4.0 11.0 0.00 0.00 0.00 62 1026.4
20260509053643 48 157 2.0 11.0 0.00 0.00 0.00 62 1026.4
20260509053407 48 114 5.0 10.0 0.00 0.00 0.00 61 1026.4
20260509052643 48 111 3.0 10.0 0.00 0.00 0.00 62 1026.4
20260509052143 48 130 4.0 10.0 0.00 0.00 0.00 62 1026.4
20260509051642 47 154 5.0 7.0 0.00 0.00 0.00 63 1026.4
20260509051407 47 110 3.0 6.0 0.00 0.00 0.00 63 1026.4
20260509050643 46 80 4.0 6.0 0.00 0.00 0.00 64 1026.6
20260509050143 46 87 4.0 6.0 0.00 0.00 0.00 64 1026.5
20260509045642 45 104 4.0 6.0 0.00 0.00 0.00 64 1026.5
20260509045141 45 89 3.0 5.0 0.00 0.00 0.00 65 1026.6
20260509044642 44 66 3.0 5.0 0.00 0.00 0.00 66 1026.5
20260509044631 44 103 4.0 5.0 0.00 0.00 0.00 66 1026.5
20260509043642 44 87 3.0 6.0 0.00 0.00 0.00 66 1026.5
20260509043142 43 93 4.0 6.0 0.00 0.00 0.00 67 1026.5
20260509042908 43 80 4.0 5.0 0.00 0.00 0.00 67 1026.5
20260509042141 42 89 4.0 5.0 0.00 0.00 0.00 68 1026.5
20260509041641 42 79 4.0 5.0 0.00 0.00 0.00 68 1026.5
20260509041141 42 83 2.0 4.0 0.00 0.00 0.00 67 1026.4
20260509040642 42 94 3.0 4.0 0.00 0.00 0.00 68 1026.5
20260509040141 41 94 2.0 3.0 0.00 0.00 0.00 68 1026.4
20260509035641 41 102 3.0 3.0 0.00 0.00 0.00 68 1026.5
20260509035141 41 102 2.0 3.0 0.00 0.00 0.00 68 1026.5
20260509034641 41 110 2.0 4.0 0.00 0.00 0.00 68 1026.6
20260509034141 40 111 3.0 4.0 0.00 0.00 0.00 70 1026.6
20260509033640 40 114 3.0 3.0 0.00 0.00 0.00 71 1026.6
20260509033625 39 114 2.0 3.0 0.00 0.00 0.00 72 1026.6
20260509032640 38 114 2.0 3.0 0.00 0.00 0.00 72 1026.6
20260509032406 38 121 2.0 3.0 0.00 0.00 0.00 71 1026.7
20260509031640 38 123 2.0 2.0 0.00 0.00 0.00 71 1026.7
20260509031141 38 123 2.0 2.0 0.00 0.00 0.00 71 1026.7
20260509030640 38 123 2.0 2.0 0.00 0.00 0.00 70 1026.7
20260509030140 38 123 2.0 2.0 0.00 0.00 0.00 70 1026.6
20260509025857 38 123 1.0 2.0 0.00 0.00 0.00 69 1026.6
20260509025139 38 123 1.0 2.0 0.00 0.00 0.00 68 1026.7
20260509024639 38 123 2.0 3.0 0.00 0.00 0.00 69 1026.7
20260509024140 38 123 2.0 3.0 0.00 0.00 0.00 69 1026.6
20260509023639 38 123 2.0 3.0 0.00 0.00 0.00 70 1026.6
20260509023139 38 123 2.0 3.0 0.00 0.00 0.00 70 1026.7
20260509022639 37 123 2.0 2.0 0.00 0.00 0.00 70 1026.6
20260509022356 37 123 1.0 2.0 0.00 0.00 0.00 70 1026.7
20260509021639 37 123 1.0 2.0 0.00 0.00 0.00 69 1026.7
20260509021138 37 123 2.0 2.0 0.00 0.00 0.00 70 1026.7
20260509020639 37 123 2.0 2.0 0.00 0.00 0.00 71 1026.7
20260509020359 36 123 2.0 2.0 0.00 0.00 0.00 71 1026.7
20260509015638 36 123 1.0 2.0 0.00 0.00 0.00 71 1026.8
20260509015138 36 123 0.0 0.0 0.00 0.00 0.00 70 1026.8
20260509014638 36 123 0.0 0.0 0.00 0.00 0.00 70 1026.8
20260509014138 36 123 0.0 0.0 0.00 0.00 0.00 69 1026.7
20260509013638 36 123 0.0 0.0 0.00 0.00 0.00 70 1026.7
20260509013138 37 123 0.0 0.0 0.00 0.00 0.00 70 1026.7
20260509012638 37 123 0.0 0.0 0.00 0.00 0.00 69 1026.8
20260509012406 37 123 0.0 0.0 0.00 0.00 0.00 69 1026.7
20260509011637 37 123 0.0 0.0 0.00 0.00 0.00 71 1026.7
20260509011138 37 123 0.0 0.0 0.00 0.00 0.00 71 1026.7
20260509010638 37 123 0.0 0.0 0.00 0.00 0.00 70 1026.7
20260509010137 37 123 0.0 0.0 0.00 0.00 0.00 70 1026.7
20260509005637 37 123 0.0 0.0 0.00 0.00 0.00 70 1026.7
20260509005137 38 123 0.0 0.0 0.00 0.00 0.00 69 1026.7
20260509004637 38 123 0.0 1.0 0.00 0.00 0.00 69 1026.8
20260509004136 38 123 0.0 1.0 0.00 0.00 0.00 70 1026.8
20260509003637 38 123 1.0 1.0 0.00 0.00 0.00 70 1026.8
20260509003136 38 123 0.0 1.0 0.00 0.00 0.00 69 1026.7
20260509002636 38 123 0.0 0.0 0.00 0.00 0.00 68 1026.7
20260509002136 38 123 0.0 1.0 0.00 0.00 0.00 67 1026.6
20260509001636 38 123 0.0 2.0 0.00 0.00 0.00 67 1026.6
20260509001136 38 123 1.0 2.0 0.00 0.00 0.00 66 1026.7
20260509000636 38 123 1.0 2.0 0.00 0.00 0.00 68 1026.6
20260509000136 37 123 1.0 2.0 0.00 0.00 0.00 69 1026.6
20260508235636 38 123 0.0 0.0 0.00 0.00 0.00 68 1026.6
20260508235135 38 123 0.0 0.0 0.00 0.00 0.00 68 1026.6
20260508234852 38 123 0.0 0.0 0.00 0.00 0.00 68 1026.6
20260508234135 38 123 0.0 0.0 0.00 0.00 0.00 68 1026.6
20260508233859 38 123 0.0 0.0 0.00 0.00 0.00 69 1026.6
20260508233135 38 123 0.0 0.0 0.00 0.00 0.00 69 1026.7
20260508232635 38 123 0.0 0.0 0.00 0.00 0.00 69 1026.8
20260508232135 38 123 0.0 0.0 0.00 0.00 0.00 69 1026.8
20260508231635 38 123 0.0 0.0 0.00 0.00 0.00 70 1026.7